Location: Aufkirchen
(47.9603°N, 11.3653°E)
Time: 09:52:05
(UTC+01:00)

Tiros 1 - Pass Details

Date: 02 December 2020
Orbit: 630 x 663 km, 48.4° (Epoch: 21 January)

Event Time Altitude Azimuth Distance (km) Brightness Sun altitude
Rises 17:28:43 0° 275° (W) 2,993 11.8 -10.6°
Reaches altitude 10° 17:31:04 10° 276° (W) 2,078 10.8 -10.9°
Maximum altitude 17:35:53 87° 7° (N) 664 7.2 -11.7°
Enters shadow 17:39:51 15° 95° (E) 1,753 8.8 -12.3°
Drops below altitude 10° 17:40:40 10° 96° (E) 2,061 - -12.5°
Sets 17:43:00 0° 97° (E) 2,967 - -12.8°
